Location: Newark
(37.9800°N, 91.3000°W)
Time: 03:09:18
(UTC+00:00)

Envisat - Pass Details

Date: 24 October 2019
Orbit: 764 x 766 km, 98.1° (Epoch: 17 November)

Event Time Altitude Azimuth Distance (km) Brightness Sun altitude
Rises 01:37:22 0° 216° (SW) 3,219 6.6 -28.3°
Reaches altitude 10° 01:41:08 10° 245° (WSW) 2,300 6.1 -29.0°
Maximum altitude 01:43:14 12° 270° (W) 2,132 6.2 -29.4°
Drops below altitude 10° 01:45:20 10° 295° (WNW) 2,306 6.3 -29.8°
Sets 01:49:09 0° 324° (NW) 3,238 6.8 -30.6°
